TimeMDT,TemperatureF,Dew PointF,Humidity,Sea Level PressureIn,VisibilityMPH,Wind Direction,Wind SpeedMPH,Gust SpeedMPH,PrecipitationIn,Events,Conditions,WindDirDegrees,DateUTC
12:53 AM,70.0,59.0,68,29.93,10.0,Calm,Calm,-,N/A,,Clear,0,2013-07-18 06:53:00
1:53 AM,73.0,55.0,53,29.92,10.0,West,5.8,-,N/A,,Clear,270,2013-07-18 07:53:00
2:53 AM,72.0,55.9,57,29.92,10.0,WNW,6.9,-,N/A,,Clear,300,2013-07-18 08:53:00
3:53 AM,68.0,57.9,70,29.92,10.0,Calm,Calm,-,N/A,,Clear,0,2013-07-18 09:53:00
4:53 AM,64.0,60.1,87,29.92,10.0,SW,3.5,-,N/A,,Clear,230,2013-07-18 10:53:00
5:53 AM,68.0,62.1,81,29.94,10.0,WNW,8.1,-,N/A,,Clear,290,2013-07-18 11:53:00
6:53 AM,69.1,63.0,81,29.95,10.0,Calm,Calm,-,N/A,,Clear,0,2013-07-18 12:53:00
7:53 AM,71.1,63.0,75,29.97,10.0,North,4.6,-,N/A,,Clear,350,2013-07-18 13:53:00
8:53 AM,77.0,63.0,62,30.00,10.0,North,6.9,-,N/A,,Clear,10,2013-07-18 14:53:00
9:53 AM,81.0,57.0,44,29.99,10.0,NNW,16.1,20.7,N/A,,Clear,340,2013-07-18 15:53:00
10:53 AM,84.0,54.0,35,29.97,10.0,North,20.7,-,N/A,,Clear,350,2013-07-18 16:53:00
11:53 AM,84.9,53.1,33,29.97,10.0,North,16.1,23.0,N/A,,Clear,350,2013-07-18 17:53:00
12:53 PM,86.0,53.1,32,29.96,10.0,North,5.8,16.1,N/A,,Clear,350,2013-07-18 18:53:00
1:53 PM,88.0,50.0,27,29.93,10.0,NNW,6.9,17.3,N/A,,Clear,340,2013-07-18 19:53:00
2:53 PM,89.1,50.0,26,29.92,10.0,Variable,5.8,-,N/A,,Clear,0,2013-07-18 20:53:00
3:53 PM,90.0,51.1,26,29.92,10.0,North,9.2,-,N/A,,Clear,350,2013-07-18 21:53:00
4:53 PM,86.0,52.0,31,29.92,10.0,North,8.1,-,N/A,,Clear,350,2013-07-18 22:53:00
5:53 PM,89.1,53.1,29,29.91,10.0,NE,6.9,-,N/A,,Mostly Cloudy,40,2013-07-18 23:53:00
6:53 PM,84.9,52.0,32,29.92,10.0,NE,11.5,-,N/A,,Partly Cloudy,40,2013-07-19 00:53:00
7:53 PM,82.9,52.0,34,29.94,10.0,NE,13.8,-,N/A,,Mostly Cloudy,50,2013-07-19 01:53:00
8:53 PM,78.1,53.1,42,29.95,10.0,NE,8.1,-,N/A,,Clear,40,2013-07-19 02:53:00
9:53 PM,75.0,48.9,40,29.99,10.0,North,3.5,-,N/A,,Clear,350,2013-07-19 03:53:00
10:53 PM,64.9,52.0,63,30.00,10.0,Calm,Calm,-,N/A,,Clear,0,2013-07-19 04:53:00
11:53 PM,63.0,52.0,67,30.01,10.0,Calm,Calm,-,N/A,,Clear,0,2013-07-19 05:53:00